Probability
0 0 0 1 1 1 1 1 0 0 1 1 0 0 0 0 0 1 4 9 10 7 5 6 6 5 3 2 1 1 2 1 0 0 0 0 0 0 0 0 0 0 0
0 0 0 1 2 1 1 1 1 0 1 2 1 1 1 1 1 2 3 8 11 9 8 7 6 5 5 4 2 1 1 1 0 0 0 0 0 0 0 0 0 0 0
0 0 0 1 1 1 2 2 1 0 1 2 3 3 3 2 3 3 3 6 8 9 11 11 10 8 8 7 5 3 2 2 1 0 0 0 0 0 0 0 0 0 0
0 0 0 1 1 1 1 2 2 2 2 2 4 5 5 5 4 4 3 4 6 7 10 13 14 12 10 9 8 8 7 6 4 3 2 1 0 0 0 0 0 0 0
2 2 1 1 2 1 1 2 3 4 4 4 3 4 6 8 8 7 5 5 6 8 10 12 15 14 12 11 12 12 12 11 9 7 5 3 2 1 1 0 0 1 1
6 5 2 1 1 1 1 2 3 5 5 4 2 3 6 9 12 12 9 7 8 9 9 11 14 14 13 13 14 14 13 12 11 10 9 8 6 4 2 2 2 3 3
9 7 4 2 2 3 3 4 4 5 5 3 3 3 5 8 11 12 11 9 8 7 7 10 13 13 13 14 13 12 11 10 9 9 11 11 10 7 4 4 5 5 5
11 8 5 4 4 6 7 8 7 5 4 4 4 5 6 7 7 8 9 8 7 7 7 8 11 13 15 14 11 9 9 8 7 7 8 10 10 8 6 5 6 6 5
13 10 8 7 7 8 9 11 10 8 5 5 7 8 8 8 7 7 8 8 7 7 7 8 10 14 18 17 12 9 9 9 8 6 6 7 8 8 6 5 5 4 3
16 14 12 12 11 9 9 11 12 11 8 7 8 8 8 9 8 8 8 7 6 5 6 7 8 13 18 18 15 13 10 9 8 7 8 8 7 6 5 3 2 2 2
20 19 16 14 14 12 11 12 13 13 11 9 9 8 8 9 9 8 8 7 6 6 6 7 7 10 14 17 17 15 12 9 6 6 8 8 6 4 2 1 1 1 2
21 21 18 16 16 15 14 14 15 15 13 12 11 9 9 9 9 8 7 6 5 6 8 8 8 7 10 15 16 15 12 8 4 3 4 4 3 1 0 0 0 0 1
19 19 20 20 20 18 16 16 16 17 16 14 12 11 10 10 10 10 8 6 4 5 8 9 8 8 10 13 15 13 11 7 3 1 1 1 0 0 0 0 0 0 0
19 21 22 23 24 21 19 18 18 19 19 16 14 13 12 11 11 11 10 7 4 4 7 9 9 9 11 12 12 11 11 7 2 0 0 0 0 0 0 0 0 0 0
21 24 26 25 25 23 22 21 21 21 21 19 17 17 16 14 12 13 13 10 6 5 7 9 10 10 10 11 10 11 12 8 2 0 0 0 0 0 0 0 0 0 0
23 25 28 27 24 23 23 22 22 22 21 19 19 18 18 17 15 15 15 13 9 8 9 10 9 8 10 10 10 12 13 10 5 1 0 0 0 0 0 0 0 0 0
25 26 27 26 22 20 21 20 19 19 19 18 16 15 16 16 15 15 16 14 11 10 11 12 10 9 11 13 13 13 12 11 8 4 1 0 0 0 0 0 0 0 0
29 29 28 25 20 17 19 19 17 17 17 16 14 13 13 13 12 12 13 13 11 11 12 13 11 12 14 15 15 14 12 11 10 5 2 0 0 0 0 0 0 0 0
32 31 30 26 21 19 20 19 18 18 17 15 13 13 13 12 12 10 10 11 10 10 12 11 10 13 17 17 17 15 14 13 10 6 3 1 0 0 0 0 0 0 0
32 32 30 25 21 20 20 20 20 19 17 15 15 15 14 13 13 11 9 9 9 11 12 10 8 11 15 18 20 18 16 15 12 7 5 3 2 1 0 0 0 0 0
32 32 30 25 20 17 17 19 20 20 20 19 19 17 15 12 11 9 7 7 9 11 13 11 8 8 10 15 18 16 14 13 11 9 8 7 6 3 2 1 0 0 0
35 34 32 28 22 17 13 14 19 22 24 25 24 22 17 14 12 8 5 4 5 7 10 10 9 10 11 12 13 12 10 9 9 10 11 11 10 7 5 3 1 0 0
39 36 33 31 28 21 13 10 15 23 28 29 29 26 22 18 15 12 8 5 5 5 6 7 9 12 14 14 13 12 11 10 10 12 13 12 10 8 7 6 4 1 0
39 36 33 31 30 25 16 9 12 23 30 31 31 29 25 20 15 12 11 10 10 9 6 6 8 11 13 13 13 14 15 14 14 14 15 13 10 8 8 8 6 2 0
40 37 32 30 30 27 18 10 12 23 31 31 30 27 23 18 14 11 11 12 13 12 9 7 7 8 10 10 10 13 15 16 15 15 15 14 12 9 8 8 6 2 0
41 37 32 31 30 26 18 11 13 23 30 29 27 22 17 15 13 10 10 11 12 12 10 7 5 6 8 8 8 11 13 14 14 14 14 15 13 11 9 8 6 3 1
Wind_Speed
3 3 2 2 3 3 3 2 2 3 2 2 1 2 1 1 2 4 6 12 12 11 11 11 10 10 10 9 9 9 8 8 7 7 7 7 7 7 7 6 6 6 5
3 3 2 1 1 2 2 2 2 2 1 1 1 1 2 2 1 3 5 8 11 11 11 11 11 10 10 10 9 9 8 8 7 7 7 7 7 7 7 7 7 7 6
3 3 2 2 2 2 2 1 1 1 2 2 2 2 2 2 3 3 4 4 6 10 11 11 11 10 10 10 10 9 9 8 8 8 7 7 7 7 7 7 7 7 6
3 2 2 2 2 2 2 2 2 1 1 1 1 1 1 1 3 4 4 4 5 5 9 12 11 10 11 11 11 10 10 9 9 8 8 8 8 8 8 8 8 7 7
4 3 2 1 2 2 2 2 2 2 1 1 1 1 1 1 2 3 3 4 5 5 5 9 12 11 11 11 11 11 10 10 10 9 9 9 9 9 8 8 8 7 6
4 3 2 2 2 1 1 1 1 1 1 1 2 1 1 1 2 2 3 3 4 5 5 6 7 8 11 11 11 11 11 11 10 10 9 9 9 8 8 8 8 8 7
4 3 2 2 2 2 2 2 2 2 1 1 1 1 2 2 2 2 2 2 2 3 3 4 5 5 5 10 10 10 11 11 10 10 10 9 9 9 9 9 9 8 8
4 4 3 3 2 2 2 2 2 2 2 2 1 1 1 1 1 2 2 3 3 2 3 4 4 4 4 4 7 11 11 11 11 11 10 10 9 9 9 9 9 9 8
4 3 4 3 3 3 3 3 3 4 3 2 2 2 2 2 1 1 2 1 2 2 2 2 4 4 5 4 5 9 12 11 11 11 11 10 10 9 9 9 9 9 9
4 4 3 3 3 3 3 4 3 3 3 2 2 2 2 1 1 1 1 2 2 2 3 3 3 3 4 4 4 7 11 11 11 11 11 11 10 10 10 10 10 10 10
4 4 4 3 3 3 3 3 2 2 2 3 2 2 2 2 2 2 2 1 1 2 3 3 2 3 4 4 4 6 10 11 10 10 10 11 11 11 10 10 10 10 10
4 5 4 3 3 3 3 2 2 3 2 2 2 2 2 2 2 2 2 2 2 2 2 2 2 2 3 4 6 9 11 11 11 11 11 10 11 11 11 10 10 10 10
3 3 4 3 3 3 3 3 3 3 3 3 2 2 2 2 2 1 1 2 2 1 2 3 3 3 3 2 3 8 10 11 11 11 11 10 10 11 11 10 10 10 9
3 4 4 4 4 4 4 3 3 3 2 3 3 2 2 2 2 2 2 2 2 2 2 3 2 3 2 2 3 7 6 10 10 11 11 11 10 10 10 10 9 8 7
2 4 4 4 4 4 3 3 2 3 2 3 3 3 2 2 2 2 2 3 2 3 3 3 2 2 2 2 5 4 4 8 10 11 11 11 11 10 10 10 9 9 8
1 2 3 3 3 3 3 3 2 2 2 3 2 2 2 2 2 2 2 2 2 3 3 2 2 2 2 2 4 3 3 7 10 11 11 11 11 11 11 10 10 10 9
2 2 2 2 2 2 3 3 3 2 3 3 3 3 3 3 2 2 2 2 2 2 3 2 2 2 1 2 2 3 3 3 5 10 11 11 11 10 10 10 10 10 9
2 2 2 2 3 3 3 3 3 3 3 3 3 2 3 3 3 3 2 3 3 3 3 4 2 2 2 2 3 3 3 3 3 7 10 10 10 10 10 9 9 9 9
3 3 3 3 3 3 3 3 3 3 3 3 3 3 3 3 3 3 3 3 3 3 2 3 3 2 2 3 2 3 4 2 3 4 7 8 9 10 10 10 9 9 9
3 3 3 3 3 3 3 3 3 3 3 3 3 3 3 3 3 4 4 3 3 3 3 3 3 2 2 3 2 2 2 2 3 3 3 5 8 10 10 10 10 10 9
4 3 3 3 3 3 3 2 2 3 3 3 3 3 3 4 4 4 4 3 3 3 3 3 3 2 2 2 2 2 3 2 2 2 2 3 4 4 6 8 9 10 10
3 3 3 3 4 3 2 2 2 2 2 3 3 3 4 4 4 5 5 4 4 4 3 3 3 3 3 3 2 3 2 2 2 2 2 3 3 4 4 5 8 10 11
4 3 3 3 3 2 2 1 2 2 3 3 3 3 5 4 3 2 4 6 6 7 6 4 4 4 4 3 3 3 3 4 4 2 2 3 3 3 3 4 9 11 11
3 3 4 3 3 3 3 2 2 3 4 4 4 4 3 2 2 2 4 4 4 4 5 5 5 5 4 3 4 5 4 3 3 3 2 3 2 2 2 2 7 10 11
3 4 3 3 3 2 2 2 2 3 3 4 4 3 2 2 1 2 3 3 4 4 5 5 6 6 6 6 4 3 2 2 3 2 2 2 2 1 2 2 4 10 11
3 3 2 2 2 2 2 1 2 3 3 3 2 2 2 2 1 1 3 3 4 4 4 4 4 5 5 5 6 4 3 3 3 2 2 2 2 1 2 2 2 3 5
Wind_Direction
137 136 140 152 172 154 163 179 166 166 175 168 177 183 172 132 128 133 150 165 169 177 182 187 190 193 192 193 194 198 200 203 203 201 203 202 201 203 199 198 199 201 205
129 132 142 152 169 162 165 164 161 161 176 161 184 204 177 167 165 145 157 171 177 180 184 188 191 193 196 195 195 197 201 202 204 200 200 204 204 202 205 208 210 212 215
135 143 151 169 184 168 141 146 161 159 178 187 192 209 206 180 175 159 165 170 177 186 188 191 194 195 197 199 199 200 203 205 205 202 201 202 199 201 203 207 210 213 216
145 165 164 178 168 163 166 169 187 169 166 198 195 215 200 186 176 179 182 177 175 181 190 196 197 198 199 201 203 204 204 204 206 205 203 203 201 201 205 208 211 214 217
166 181 180 156 171 183 173 194 162 164 159 182 210 211 214 192 186 191 186 186 180 176 179 190 196 198 201 203 205 205 204 202 204 206 206 208 207 206 205 208 209 208 211
177 184 173 178 193 179 149 132 121 137 170 204 248 258 249 220 198 195 197 197 183 184 186 183 187 200 203 205 205 204 205 205 205 207 209 212 209 205 202 205 205 206 208
178 189 187 176 196 183 166 175 165 176 205 187 186 293 274 240 195 193 196 202 184 181 178 176 183 184 190 203 206 204 207 208 206 208 210 211 211 208 205 206 206 206 207
178 192 190 194 186 184 184 194 190 190 215 198 186 197 257 302 255 215 188 196 194 180 187 190 180 180 181 177 197 203 206 206 207 209 209 209 211 209 208 206 206 207 209
182 188 179 198 197 199 196 204 200 199 214 219 207 198 203 205 210 239 217 201 183 178 195 195 189 189 184 177 180 198 203 207 210 212 213 211 209 208 208 210 211 211 213
186 179 187 198 197 201 193 203 198 207 210 223 224 221 225 198 181 216 262 208 192 203 209 218 200 197 183 175 177 176 193 203 210 214 215 212 210 209 210 213 217 218 218
184 182 182 195 202 203 199 206 194 207 214 224 223 210 215 224 218 199 226 235 218 224 207 212 208 200 193 184 177 181 186 196 204 212 215 214 212 211 213 216 220 223 224
186 186 184 192 205 213 212 200 211 208 222 231 240 231 213 209 216 208 217 225 233 230 208 219 209 210 204 190 190 185 187 192 200 206 211 213 213 212 213 216 221 225 227
178 187 186 185 209 211 210 210 212 214 219 228 235 242 239 244 225 214 193 226 246 245 228 229 213 204 207 183 175 180 189 193 201 204 207 209 211 212 213 216 219 223 224
177 170 175 189 208 212 215 215 213 214 222 231 236 232 248 253 243 221 212 212 235 243 232 240 225 201 196 182 171 183 194 195 201 203 204 206 209 210 209 211 213 215 216
195 162 174 185 204 208 223 214 214 219 213 220 235 228 242 245 248 243 226 208 211 240 246 231 229 216 192 173 175 191 191 198 200 202 203 205 205 204 203 206 207 209 213
217 168 175 178 202 204 210 225 217 226 219 224 228 229 246 261 262 257 250 248 229 235 250 230 234 229 210 204 192 194 200 199 200 200 202 203 205 205 205 206 208 208 211
209 194 189 190 200 216 214 214 225 221 228 235 236 221 229 253 274 271 257 252 251 246 254 262 250 231 225 213 217 225 219 208 202 202 204 203 203 204 204 206 208 209 209
204 207 200 202 213 214 216 214 229 225 228 237 239 240 238 241 251 272 277 266 258 245 236 252 257 253 253 222 209 223 228 225 205 198 198 201 202 204 205 203 203 202 201
202 209 211 210 216 216 211 222 227 227 222 234 233 236 241 246 242 257 265 268 270 267 246 247 256 245 248 236 218 234 240 231 234 199 194 200 200 202 204 200 197 194 195
193 203 208 215 216 213 211 214 226 232 230 236 239 239 240 243 243 253 255 260 271 276 265 253 253 252 251 241 216 229 244 228 234 232 199 197 196 202 203 198 197 193 193
197 197 203 212 219 221 229 223 231 236 239 242 239 237 238 236 237 243 256 257 264 268 265 258 255 261 269 263 241 243 251 245 238 222 199 201 190 196 198 202 202 198 194
198 196 205 216 220 227 222 220 230 251 251 248 249 244 240 232 231 230 243 252 250 250 259 263 263 260 261 265 261 253 247 254 258 220 206 229 201 201 202 199 197 196 197
200 206 213 220 210 199 190 188 232 242 251 252 253 251 257 245 222 241 249 249 247 245 239 244 259 261 255 251 253 262 252 244 248 234 220 242 222 220 214 200 187 190 194
202 210 217 217 201 206 189 198 241 240 252 253 254 249 245 276 279 279 270 260 255 249 238 236 245 257 261 250 237 243 250 255 243 230 207 234 227 233 228 193 187 184 189
209 218 215 208 213 211 178 189 251 248 249 254 257 260 238 227 286 309 274 270 270 272 254 246 244 249 247 250 247 249 250 244 259 248 219 217 223 229 228 212 197 187 188
220 226 221 208 204 193 169 180 258 257 258 260 252 238 241 218 239 254 262 264 264 271 280 267 255 249 239 233 224 220 229 239 251 253 217 202 221 213 241 230 196 188 199